owner,sensor,date,latitude,longitude,relative_humidity,qcFlag 
COMPS,ioos:station:USF.COMPS:EGK:1,2013-11-11T19:00:00Z,27.6010,-82.7510,73.59,1111122 
COMPS,ioos:station:USF.COMPS:EGK:1,2013-11-11T19:06:00Z,27.6010,-82.7510,73.29,1111122 
COMPS,ioos:station:USF.COMPS:EGK:1,2013-11-11T19:12:00Z,27.6010,-82.7510,72.23,1111122 
COMPS,ioos:station:USF.COMPS:EGK:1,2013-11-11T19:18:00Z,27.6010,-82.7510,71.51,1111122 
COMPS,ioos:station:USF.COMPS:EGK:1,2013-11-11T19:24:00Z,27.6010,-82.7510,75.03,1111122 
COMPS,ioos:station:USF.COMPS:EGK:1,2013-11-11T19:30:00Z,27.6010,-82.7510,75.94,1111122 
COMPS,ioos:station:USF.COMPS:EGK:1,2013-11-11T19:36:00Z,27.6010,-82.7510,74.19,1111122 
COMPS,ioos:station:USF.COMPS:EGK:1,2013-11-11T19:42:00Z,27.6010,-82.7510,74.64,1111122 
COMPS,ioos:station:USF.COMPS:EGK:1,2013-11-11T19:48:00Z,27.6010,-82.7510,76.53,1111122 
COMPS,ioos:station:USF.COMPS:EGK:1,2013-11-11T19:54:00Z,27.6010,-82.7510,78.89,1111122 
COMPS,ioos:station:USF.COMPS:EGK:1,2013-11-11T20:00:00Z,27.6010,-82.7510,80.4,1111122 
COMPS,ioos:station:USF.COMPS:EGK:1,2013-11-11T20:06:00Z,27.6010,-82.7510,81.69,1111122 
COMPS,ioos:station:USF.COMPS:EGK:1,2013-11-11T20:12:00Z,27.6010,-82.7510,82.6,1111122 
COMPS,ioos:station:USF.COMPS:EGK:1,2013-11-11T20:18:00Z,27.6010,-82.7510,82.85,1111122 
COMPS,ioos:station:USF.COMPS:EGK:1,2013-11-11T20:24:00Z,27.6010,-82.7510,83.14,1111122 
COMPS,ioos:station:USF.COMPS:EGK:1,2013-11-11T20:30:00Z,27.6010,-82.7510,83.62,1111122 
COMPS,ioos:station:USF.COMPS:EGK:1,2013-11-11T20:36:00Z,27.6010,-82.7510,84.65,1111122 
COMPS,ioos:station:USF.COMPS:EGK:1,2013-11-11T20:42:00Z,27.6010,-82.7510,84.74,1111122 
COMPS,ioos:station:USF.COMPS:EGK:1,2013-11-11T20:48:00Z,27.6010,-82.7510,84.71,1111122 
COMPS,ioos:station:USF.COMPS:EGK:1,2013-11-11T20:54:00Z,27.6010,-82.7510,84.73,1111122 
COMPS,ioos:station:USF.COMPS:EGK:1,2013-11-11T21:00:00Z,27.6010,-82.7510,84.96,1111122 
COMPS,ioos:station:USF.COMPS:EGK:1,2013-11-11T21:06:00Z,27.6010,-82.7510,85.53,1111122 
COMPS,ioos:station:USF.COMPS:EGK:1,2013-11-11T21:12:00Z,27.6010,-82.7510,85.43,1111122 
COMPS,ioos:station:USF.COMPS:EGK:1,2013-11-11T21:18:00Z,27.6010,-82.7510,85.36,1111122 
COMPS,ioos:station:USF.COMPS:EGK:1,2013-11-11T21:24:00Z,27.6010,-82.7510,85.3,1111122 
COMPS,ioos:station:USF.COMPS:EGK:1,2013-11-11T21:30:00Z,27.6010,-82.7510,85.22,1111122 
COMPS,ioos:station:USF.COMPS:EGK:1,2013-11-11T21:36:00Z,27.6010,-82.7510,85.16,1111122 
COMPS,ioos:station:USF.COMPS:EGK:1,2013-11-11T21:42:00Z,27.6010,-82.7510,85.3,1111122 
COMPS,ioos:station:USF.COMPS:EGK:1,2013-11-11T21:48:00Z,27.6010,-82.7510,85.13,1111122 
COMPS,ioos:station:USF.COMPS:EGK:1,2013-11-11T21:54:00Z,27.6010,-82.7510,84.54,1111122 
COMPS,ioos:station:USF.COMPS:EGK:1,2013-11-11T22:00:00Z,27.6010,-82.7510,84.24,1111122 
COMPS,ioos:station:USF.COMPS:EGK:1,2013-11-11T22:06:00Z,27.6010,-82.7510,84.66,1111122 
COMPS,ioos:station:USF.COMPS:EGK:1,2013-11-11T22:12:00Z,27.6010,-82.7510,83.85,1111122 
COMPS,ioos:station:USF.COMPS:EGK:1,2013-11-11T22:18:00Z,27.6010,-82.7510,83.4,1111122 
COMPS,ioos:station:USF.COMPS:EGK:1,2013-11-11T22:24:00Z,27.6010,-82.7510,83.37,1111122 
COMPS,ioos:station:USF.COMPS:EGK:1,2013-11-11T22:30:00Z,27.6010,-82.7510,83.5,1111122 
COMPS,ioos:station:USF.COMPS:EGK:1,2013-11-11T22:36:00Z,27.6010,-82.7510,82.65,1111122 
COMPS,ioos:station:USF.COMPS:EGK:1,2013-11-11T22:42:00Z,27.6010,-82.7510,82.0,1111122 
COMPS,ioos:station:USF.COMPS:EGK:1,2013-11-11T22:48:00Z,27.6010,-82.7510,81.84,1111122 
COMPS,ioos:station:USF.COMPS:EGK:1,2013-11-11T22:54:00Z,27.6010,-82.7510,81.7,1111122 
COMPS,ioos:station:USF.COMPS:EGK:1,2013-11-11T23:00:00Z,27.6010,-82.7510,81.48,1111122 
COMPS,ioos:station:USF.COMPS:EGK:1,2013-11-11T23:06:00Z,27.6010,-82.7510,80.61,1111122 
COMPS,ioos:station:USF.COMPS:EGK:1,2013-11-11T23:12:00Z,27.6010,-82.7510,80.85,1111122 
COMPS,ioos:station:USF.COMPS:EGK:1,2013-11-11T23:18:00Z,27.6010,-82.7510,81.52,1111122 
COMPS,ioos:station:USF.COMPS:EGK:1,2013-11-11T23:24:00Z,27.6010,-82.7510,82.33,1111122 
COMPS,ioos:station:USF.COMPS:EGK:1,2013-11-11T23:30:00Z,27.6010,-82.7510,82.51,1111122 
COMPS,ioos:station:USF.COMPS:EGK:1,2013-11-11T23:36:00Z,27.6010,-82.7510,81.95,1111122 
COMPS,ioos:station:USF.COMPS:EGK:1,2013-11-11T23:42:00Z,27.6010,-82.7510,81.77,1111122 
COMPS,ioos:station:USF.COMPS:EGK:1,2013-11-11T23:48:00Z,27.6010,-82.7510,81.74,1111122 
COMPS,ioos:station:USF.COMPS:EGK:1,2013-11-11T23:54:00Z,27.6010,-82.7510,82.89,1111122 
COMPS,ioos:station:USF.COMPS:EGK:1,2013-11-12T00:00:00Z,27.6010,-82.7510,83.48,1111122 
COMPS,ioos:station:USF.COMPS:EGK:1,2013-11-12T00:06:00Z,27.6010,-82.7510,83.14,1111122 
COMPS,ioos:station:USF.COMPS:EGK:1,2013-11-12T00:12:00Z,27.6010,-82.7510,82.79,1111122 
COMPS,ioos:station:USF.COMPS:EGK:1,2013-11-12T00:18:00Z,27.6010,-82.7510,82.45,1111122 
COMPS,ioos:station:USF.COMPS:EGK:1,2013-11-12T00:24:00Z,27.6010,-82.7510,82.61,1111122 
COMPS,ioos:station:USF.COMPS:EGK:1,2013-11-12T00:30:00Z,27.6010,-82.7510,82.97,1111122 
COMPS,ioos:station:USF.COMPS:EGK:1,2013-11-12T00:36:00Z,27.6010,-82.7510,83.41,1111122 
COMPS,ioos:station:USF.COMPS:EGK:1,2013-11-12T00:42:00Z,27.6010,-82.7510,82.83,1111122 
COMPS,ioos:station:USF.COMPS:EGK:1,2013-11-12T00:48:00Z,27.6010,-82.7510,81.34,1111122 
COMPS,ioos:station:USF.COMPS:EGK:1,2013-11-12T00:54:00Z,27.6010,-82.7510,80.4,1111122 
COMPS,ioos:station:USF.COMPS:EGK:1,2013-11-12T01:00:00Z,27.6010,-82.7510,79.52,1111122 
COMPS,ioos:station:USF.COMPS:EGK:1,2013-11-12T01:06:00Z,27.6010,-82.7510,79.41,1111122 
COMPS,ioos:station:USF.COMPS:EGK:1,2013-11-12T01:12:00Z,27.6010,-82.7510,79.53,1111122 
COMPS,ioos:station:USF.COMPS:EGK:1,2013-11-12T01:18:00Z,27.6010,-82.7510,79.37,1111122 
COMPS,ioos:station:USF.COMPS:EGK:1,2013-11-12T01:24:00Z,27.6010,-82.7510,78.28,1111122 
COMPS,ioos:station:USF.COMPS:EGK:1,2013-11-12T01:30:00Z,27.6010,-82.7510,78.01,1111122 
COMPS,ioos:station:USF.COMPS:EGK:1,2013-11-12T01:36:00Z,27.6010,-82.7510,77.47,1111122 
COMPS,ioos:station:USF.COMPS:EGK:1,2013-11-12T01:42:00Z,27.6010,-82.7510,78.8,1111122 
COMPS,ioos:station:USF.COMPS:EGK:1,2013-11-12T01:48:00Z,27.6010,-82.7510,79.23,1111122 
COMPS,ioos:station:USF.COMPS:EGK:1,2013-11-12T01:54:00Z,27.6010,-82.7510,77.63,1111122 
COMPS,ioos:station:USF.COMPS:EGK:1,2013-11-12T02:00:00Z,27.6010,-82.7510,77.72,1111122 
COMPS,ioos:station:USF.COMPS:EGK:1,2013-11-12T02:06:00Z,27.6010,-82.7510,78.29,1111122 
COMPS,ioos:station:USF.COMPS:EGK:1,2013-11-12T02:12:00Z,27.6010,-82.7510,78.89,1111122 
COMPS,ioos:station:USF.COMPS:EGK:1,2013-11-12T02:18:00Z,27.6010,-82.7510,80.18,1111122 
COMPS,ioos:station:USF.COMPS:EGK:1,2013-11-12T02:24:00Z,27.6010,-82.7510,79.47,1111122 
COMPS,ioos:station:USF.COMPS:EGK:1,2013-11-12T02:30:00Z,27.6010,-82.7510,78.44,1111122 
COMPS,ioos:station:USF.COMPS:EGK:1,2013-11-12T02:36:00Z,27.6010,-82.7510,79.15,1111122 
COMPS,ioos:station:USF.COMPS:EGK:1,2013-11-12T02:42:00Z,27.6010,-82.7510,79.07,1111122 
COMPS,ioos:station:USF.COMPS:EGK:1,2013-11-12T02:48:00Z,27.6010,-82.7510,79.72,1111122 
COMPS,ioos:station:USF.COMPS:EGK:1,2013-11-12T02:54:00Z,27.6010,-82.7510,79.46,1111122 
COMPS,ioos:station:USF.COMPS:EGK:1,2013-11-12T03:00:00Z,27.6010,-82.7510,79.1,1111122 
COMPS,ioos:station:USF.COMPS:EGK:1,2013-11-12T03:06:00Z,27.6010,-82.7510,78.71,1111122 
COMPS,ioos:station:USF.COMPS:EGK:1,2013-11-12T03:12:00Z,27.6010,-82.7510,78.65,1111122 
COMPS,ioos:station:USF.COMPS:EGK:1,2013-11-12T03:18:00Z,27.6010,-82.7510,79.09,1111122 
COMPS,ioos:station:USF.COMPS:EGK:1,2013-11-12T03:24:00Z,27.6010,-82.7510,79.81,1111122 
COMPS,ioos:station:USF.COMPS:EGK:1,2013-11-12T03:30:00Z,27.6010,-82.7510,80.29,1111122 
COMPS,ioos:station:USF.COMPS:EGK:1,2013-11-12T03:36:00Z,27.6010,-82.7510,80.26,1111122 
COMPS,ioos:station:USF.COMPS:EGK:1,2013-11-12T03:42:00Z,27.6010,-82.7510,80.51,1111122 
COMPS,ioos:station:USF.COMPS:EGK:1,2013-11-12T03:48:00Z,27.6010,-82.7510,80.75,1111122 
COMPS,ioos:station:USF.COMPS:EGK:1,2013-11-12T03:54:00Z,27.6010,-82.7510,80.74,1111122 
COMPS,ioos:station:USF.COMPS:EGK:1,2013-11-12T04:00:00Z,27.6010,-82.7510,80.85,1111122 
COMPS,ioos:station:USF.COMPS:EGK:1,2013-11-12T04:06:00Z,27.6010,-82.7510,81.25,1111122 
COMPS,ioos:station:USF.COMPS:EGK:1,2013-11-12T04:12:00Z,27.6010,-82.7510,81.22,1111122 
COMPS,ioos:station:USF.COMPS:EGK:1,2013-11-12T04:18:00Z,27.6010,-82.7510,81.28,1111122 
COMPS,ioos:station:USF.COMPS:EGK:1,2013-11-12T04:24:00Z,27.6010,-82.7510,81.83,1111122 
COMPS,ioos:station:USF.COMPS:EGK:1,2013-11-12T04:30:00Z,27.6010,-82.7510,82.11,1111122 
COMPS,ioos:station:USF.COMPS:EGK:1,2013-11-12T04:36:00Z,27.6010,-82.7510,82.21,1111122 
COMPS,ioos:station:USF.COMPS:EGK:1,2013-11-12T04:42:00Z,27.6010,-82.7510,82.22,1111122 
COMPS,ioos:station:USF.COMPS:EGK:1,2013-11-12T04:48:00Z,27.6010,-82.7510,82.54,1111122 
COMPS,ioos:station:USF.COMPS:EGK:1,2013-11-12T04:54:00Z,27.6010,-82.7510,83.11,1111122 
COMPS,ioos:station:USF.COMPS:EGK:1,2013-11-12T05:00:00Z,27.6010,-82.7510,83.19,1111122 
COMPS,ioos:station:USF.COMPS:EGK:1,2013-11-12T05:06:00Z,27.6010,-82.7510,83.29,1111122 
COMPS,ioos:station:USF.COMPS:EGK:1,2013-11-12T05:12:00Z,27.6010,-82.7510,84.06,1111122 
COMPS,ioos:station:USF.COMPS:EGK:1,2013-11-12T05:18:00Z,27.6010,-82.7510,84.25,1111122 
COMPS,ioos:station:USF.COMPS:EGK:1,2013-11-12T05:24:00Z,27.6010,-82.7510,83.27,1111122 
COMPS,ioos:station:USF.COMPS:EGK:1,2013-11-12T05:30:00Z,27.6010,-82.7510,81.0,1111122 
COMPS,ioos:station:USF.COMPS:EGK:1,2013-11-12T05:36:00Z,27.6010,-82.7510,80.52,1111122 
COMPS,ioos:station:USF.COMPS:EGK:1,2013-11-12T05:42:00Z,27.6010,-82.7510,80.62,1111122 
COMPS,ioos:station:USF.COMPS:EGK:1,2013-11-12T05:48:00Z,27.6010,-82.7510,80.83,1111122 
COMPS,ioos:station:USF.COMPS:EGK:1,2013-11-12T05:54:00Z,27.6010,-82.7510,81.24,1111122 
COMPS,ioos:station:USF.COMPS:EGK:1,2013-11-12T06:00:00Z,27.6010,-82.7510,82.13,1111122 
COMPS,ioos:station:USF.COMPS:EGK:1,2013-11-12T06:06:00Z,27.6010,-82.7510,83.11,1111122 
COMPS,ioos:station:USF.COMPS:EGK:1,2013-11-12T06:12:00Z,27.6010,-82.7510,83.75,1111122 
COMPS,ioos:station:USF.COMPS:EGK:1,2013-11-12T06:18:00Z,27.6010,-82.7510,83.71,1111122 
COMPS,ioos:station:USF.COMPS:EGK:1,2013-11-12T06:24:00Z,27.6010,-82.7510,83.45,1111122 
COMPS,ioos:station:USF.COMPS:EGK:1,2013-11-12T06:30:00Z,27.6010,-82.7510,83.32,1111122 
COMPS,ioos:station:USF.COMPS:EGK:1,2013-11-12T06:36:00Z,27.6010,-82.7510,83.6,1111122 
COMPS,ioos:station:USF.COMPS:EGK:1,2013-11-12T06:42:00Z,27.6010,-82.7510,84.02,1111122 
COMPS,ioos:station:USF.COMPS:EGK:1,2013-11-12T06:48:00Z,27.6010,-82.7510,84.21,1111122 
COMPS,ioos:station:USF.COMPS:EGK:1,2013-11-12T06:54:00Z,27.6010,-82.7510,83.95,1111122 
COMPS,ioos:station:USF.COMPS:EGK:1,2013-11-12T07:00:00Z,27.6010,-82.7510,84.01,1111122 
COMPS,ioos:station:USF.COMPS:EGK:1,2013-11-12T07:06:00Z,27.6010,-82.7510,84.6,1111122 
COMPS,ioos:station:USF.COMPS:EGK:1,2013-11-12T07:12:00Z,27.6010,-82.7510,84.64,1111122 
COMPS,ioos:station:USF.COMPS:EGK:1,2013-11-12T07:18:00Z,27.6010,-82.7510,84.42,1111122 
COMPS,ioos:station:USF.COMPS:EGK:1,2013-11-12T07:24:00Z,27.6010,-82.7510,84.56,1111122 
COMPS,ioos:station:USF.COMPS:EGK:1,2013-11-12T07:30:00Z,27.6010,-82.7510,84.54,1111122 
COMPS,ioos:station:USF.COMPS:EGK:1,2013-11-12T07:36:00Z,27.6010,-82.7510,84.69,1111122 
COMPS,ioos:station:USF.COMPS:EGK:1,2013-11-12T07:42:00Z,27.6010,-82.7510,84.74,1111122 
COMPS,ioos:station:USF.COMPS:EGK:1,2013-11-12T07:48:00Z,27.6010,-82.7510,84.71,1111122 
COMPS,ioos:station:USF.COMPS:EGK:1,2013-11-12T07:54:00Z,27.6010,-82.7510,84.73,1111122 
COMPS,ioos:station:USF.COMPS:EGK:1,2013-11-12T08:00:00Z,27.6010,-82.7510,84.67,1111122 
COMPS,ioos:station:USF.COMPS:EGK:1,2013-11-12T08:06:00Z,27.6010,-82.7510,84.88,1111122 
COMPS,ioos:station:USF.COMPS:EGK:1,2013-11-12T08:12:00Z,27.6010,-82.7510,84.9,1111122 
COMPS,ioos:station:USF.COMPS:EGK:1,2013-11-12T08:18:00Z,27.6010,-82.7510,84.96,1111122 
COMPS,ioos:station:USF.COMPS:EGK:1,2013-11-12T08:24:00Z,27.6010,-82.7510,85.17,1111122 
COMPS,ioos:station:USF.COMPS:EGK:1,2013-11-12T08:30:00Z,27.6010,-82.7510,85.39,1111122 
COMPS,ioos:station:USF.COMPS:EGK:1,2013-11-12T08:36:00Z,27.6010,-82.7510,85.26,1111122 
COMPS,ioos:station:USF.COMPS:EGK:1,2013-11-12T08:42:00Z,27.6010,-82.7510,85.33,1111122 
COMPS,ioos:station:USF.COMPS:EGK:1,2013-11-12T08:48:00Z,27.6010,-82.7510,85.27,1111122 
COMPS,ioos:station:USF.COMPS:EGK:1,2013-11-12T08:54:00Z,27.6010,-82.7510,84.93,1111122 
COMPS,ioos:station:USF.COMPS:EGK:1,2013-11-12T09:00:00Z,27.6010,-82.7510,84.25,1111122 
COMPS,ioos:station:USF.COMPS:EGK:1,2013-11-12T09:06:00Z,27.6010,-82.7510,84.22,1111122 
COMPS,ioos:station:USF.COMPS:EGK:1,2013-11-12T09:12:00Z,27.6010,-82.7510,84.95,1111122 
COMPS,ioos:station:USF.COMPS:EGK:1,2013-11-12T09:18:00Z,27.6010,-82.7510,84.79,1111122 
COMPS,ioos:station:USF.COMPS:EGK:1,2013-11-12T09:24:00Z,27.6010,-82.7510,84.58,1111122 
COMPS,ioos:station:USF.COMPS:EGK:1,2013-11-12T09:30:00Z,27.6010,-82.7510,84.37,1111122 
COMPS,ioos:station:USF.COMPS:EGK:1,2013-11-12T09:36:00Z,27.6010,-82.7510,84.51,1111122 
COMPS,ioos:station:USF.COMPS:EGK:1,2013-11-12T09:42:00Z,27.6010,-82.7510,84.75,1111122 
COMPS,ioos:station:USF.COMPS:EGK:1,2013-11-12T09:48:00Z,27.6010,-82.7510,84.78,1111122 
COMPS,ioos:station:USF.COMPS:EGK:1,2013-11-12T09:54:00Z,27.6010,-82.7510,84.98,1111122 
COMPS,ioos:station:USF.COMPS:EGK:1,2013-11-12T10:00:00Z,27.6010,-82.7510,85.46,1111122 
COMPS,ioos:station:USF.COMPS:EGK:1,2013-11-12T10:06:00Z,27.6010,-82.7510,86.02,1111122 
COMPS,ioos:station:USF.COMPS:EGK:1,2013-11-12T10:12:00Z,27.6010,-82.7510,87.06,1111122 
COMPS,ioos:station:USF.COMPS:EGK:1,2013-11-12T10:18:00Z,27.6010,-82.7510,87.55,1111122 
COMPS,ioos:station:USF.COMPS:EGK:1,2013-11-12T10:24:00Z,27.6010,-82.7510,87.86,1111122 
COMPS,ioos:station:USF.COMPS:EGK:1,2013-11-12T10:30:00Z,27.6010,-82.7510,87.48,1111122 
COMPS,ioos:station:USF.COMPS:EGK:1,2013-11-12T10:36:00Z,27.6010,-82.7510,87.22,1111122 
COMPS,ioos:station:USF.COMPS:EGK:1,2013-11-12T10:42:00Z,27.6010,-82.7510,87.31,1111122 
COMPS,ioos:station:USF.COMPS:EGK:1,2013-11-12T10:48:00Z,27.6010,-82.7510,88.2,1111122 
COMPS,ioos:station:USF.COMPS:EGK:1,2013-11-12T10:54:00Z,27.6010,-82.7510,88.75,1111122 
COMPS,ioos:station:USF.COMPS:EGK:1,2013-11-12T11:00:00Z,27.6010,-82.7510,88.83,1111122 
COMPS,ioos:station:USF.COMPS:EGK:1,2013-11-12T11:06:00Z,27.6010,-82.7510,89.06,1111122 
COMPS,ioos:station:USF.COMPS:EGK:1,2013-11-12T11:12:00Z,27.6010,-82.7510,89.67,1111122 
COMPS,ioos:station:USF.COMPS:EGK:1,2013-11-12T11:18:00Z,27.6010,-82.7510,89.24,1111122 
COMPS,ioos:station:USF.COMPS:EGK:1,2013-11-12T11:24:00Z,27.6010,-82.7510,89.71,1111122 
COMPS,ioos:station:USF.COMPS:EGK:1,2013-11-12T11:30:00Z,27.6010,-82.7510,90.04,1111122 
COMPS,ioos:station:USF.COMPS:EGK:1,2013-11-12T11:36:00Z,27.6010,-82.7510,90.03,1111122 
COMPS,ioos:station:USF.COMPS:EGK:1,2013-11-12T11:42:00Z,27.6010,-82.7510,90.54,1111122 
COMPS,ioos:station:USF.COMPS:EGK:1,2013-11-12T11:48:00Z,27.6010,-82.7510,90.77,1111122 
COMPS,ioos:station:USF.COMPS:EGK:1,2013-11-12T11:54:00Z,27.6010,-82.7510,90.77,1111122 
COMPS,ioos:station:USF.COMPS:EGK:1,2013-11-12T12:00:00Z,27.6010,-82.7510,90.72,1111122 
COMPS,ioos:station:USF.COMPS:EGK:1,2013-11-12T12:06:00Z,27.6010,-82.7510,91.05,1111122 
COMPS,ioos:station:USF.COMPS:EGK:1,2013-11-12T12:12:00Z,27.6010,-82.7510,90.82,1111122 
COMPS,ioos:station:USF.COMPS:EGK:1,2013-11-12T12:18:00Z,27.6010,-82.7510,90.61,1111122 
COMPS,ioos:station:USF.COMPS:EGK:1,2013-11-12T12:24:00Z,27.6010,-82.7510,89.41,1111122 
COMPS,ioos:station:USF.COMPS:EGK:1,2013-11-12T12:30:00Z,27.6010,-82.7510,89.31,1111122 
COMPS,ioos:station:USF.COMPS:EGK:1,2013-11-12T12:36:00Z,27.6010,-82.7510,89.41,1111122 
COMPS,ioos:station:USF.COMPS:EGK:1,2013-11-12T12:42:00Z,27.6010,-82.7510,89.36,1111122 
COMPS,ioos:station:USF.COMPS:EGK:1,2013-11-12T12:48:00Z,27.6010,-82.7510,89.19,1111122 
COMPS,ioos:station:USF.COMPS:EGK:1,2013-11-12T12:54:00Z,27.6010,-82.7510,88.82,1111122 
COMPS,ioos:station:USF.COMPS:EGK:1,2013-11-12T13:00:00Z,27.6010,-82.7510,88.9,1111122 
COMPS,ioos:station:USF.COMPS:EGK:1,2013-11-12T13:06:00Z,27.6010,-82.7510,88.11,1111122 
COMPS,ioos:station:USF.COMPS:EGK:1,2013-11-12T13:12:00Z,27.6010,-82.7510,87.96,1111122 
COMPS,ioos:station:USF.COMPS:EGK:1,2013-11-12T13:18:00Z,27.6010,-82.7510,88.47,1111122 
COMPS,ioos:station:USF.COMPS:EGK:1,2013-11-12T13:24:00Z,27.6010,-82.7510,87.78,1111122 
COMPS,ioos:station:USF.COMPS:EGK:1,2013-11-12T13:30:00Z,27.6010,-82.7510,87.26,1111122 
COMPS,ioos:station:USF.COMPS:EGK:1,2013-11-12T13:36:00Z,27.6010,-82.7510,87.75,1111122 
COMPS,ioos:station:USF.COMPS:EGK:1,2013-11-12T13:42:00Z,27.6010,-82.7510,88.03,1111122 
COMPS,ioos:station:USF.COMPS:EGK:1,2013-11-12T13:48:00Z,27.6010,-82.7510,87.84,1111122 
COMPS,ioos:station:USF.COMPS:EGK:1,2013-11-12T13:54:00Z,27.6010,-82.7510,87.72,1111122 
COMPS,ioos:station:USF.COMPS:EGK:1,2013-11-12T14:00:00Z,27.6010,-82.7510,87.53,1111122 
COMPS,ioos:station:USF.COMPS:EGK:1,2013-11-12T14:06:00Z,27.6010,-82.7510,87.14,1111122 
COMPS,ioos:station:USF.COMPS:EGK:1,2013-11-12T14:12:00Z,27.6010,-82.7510,87.14,1111122 
COMPS,ioos:station:USF.COMPS:EGK:1,2013-11-12T14:18:00Z,27.6010,-82.7510,87.22,1111122 
COMPS,ioos:station:USF.COMPS:EGK:1,2013-11-12T14:24:00Z,27.6010,-82.7510,87.78,1111122 
COMPS,ioos:station:USF.COMPS:EGK:1,2013-11-12T14:30:00Z,27.6010,-82.7510,87.74,1111122 
COMPS,ioos:station:USF.COMPS:EGK:1,2013-11-12T14:36:00Z,27.6010,-82.7510,87.26,1111122 
COMPS,ioos:station:USF.COMPS:EGK:1,2013-11-12T14:42:00Z,27.6010,-82.7510,87.14,1111122 
COMPS,ioos:station:USF.COMPS:EGK:1,2013-11-12T14:48:00Z,27.6010,-82.7510,87.1,1111122 
COMPS,ioos:station:USF.COMPS:EGK:1,2013-11-12T14:54:00Z,27.6010,-82.7510,86.86,1111122 
COMPS,ioos:station:USF.COMPS:EGK:1,2013-11-12T15:00:00Z,27.6010,-82.7510,86.75,1111122 
COMPS,ioos:station:USF.COMPS:EGK:1,2013-11-12T15:06:00Z,27.6010,-82.7510,86.82,1111122 
COMPS,ioos:station:USF.COMPS:EGK:1,2013-11-12T15:12:00Z,27.6010,-82.7510,87.36,1111122 
COMPS,ioos:station:USF.COMPS:EGK:1,2013-11-12T15:18:00Z,27.6010,-82.7510,87.59,1111122 
COMPS,ioos:station:USF.COMPS:EGK:1,2013-11-12T15:24:00Z,27.6010,-82.7510,87.21,1111122 
COMPS,ioos:station:USF.COMPS:EGK:1,2013-11-12T15:30:00Z,27.6010,-82.7510,87.31,1111122 
COMPS,ioos:station:USF.COMPS:EGK:1,2013-11-12T15:36:00Z,27.6010,-82.7510,87.26,1111122 
COMPS,ioos:station:USF.COMPS:EGK:1,2013-11-12T15:42:00Z,27.6010,-82.7510,87.3,1111122 
COMPS,ioos:station:USF.COMPS:EGK:1,2013-11-12T15:48:00Z,27.6010,-82.7510,87.13,1111122 
COMPS,ioos:station:USF.COMPS:EGK:1,2013-11-12T15:54:00Z,27.6010,-82.7510,87.08,1111122 
COMPS,ioos:station:USF.COMPS:EGK:1,2013-11-12T16:00:00Z,27.6010,-82.7510,86.4,1111122 
COMPS,ioos:station:USF.COMPS:EGK:1,2013-11-12T16:06:00Z,27.6010,-82.7510,86.15,1111122 
COMPS,ioos:station:USF.COMPS:EGK:1,2013-11-12T16:12:00Z,27.6010,-82.7510,86.35,1111122 
COMPS,ioos:station:USF.COMPS:EGK:1,2013-11-12T16:18:00Z,27.6010,-82.7510,86.31,1111122 
COMPS,ioos:station:USF.COMPS:EGK:1,2013-11-12T16:24:00Z,27.6010,-82.7510,86.27,1111122 
COMPS,ioos:station:USF.COMPS:EGK:1,2013-11-12T16:30:00Z,27.6010,-82.7510,86.07,1111122 
COMPS,ioos:station:USF.COMPS:EGK:1,2013-11-12T16:36:00Z,27.6010,-82.7510,86.39,1111122 
COMPS,ioos:station:USF.COMPS:EGK:1,2013-11-12T16:42:00Z,27.6010,-82.7510,86.33,1111122 
COMPS,ioos:station:USF.COMPS:EGK:1,2013-11-12T16:48:00Z,27.6010,-82.7510,85.01,1111122 
COMPS,ioos:station:USF.COMPS:EGK:1,2013-11-12T16:54:00Z,27.6010,-82.7510,83.74,1111122 
COMPS,ioos:station:USF.COMPS:EGK:1,2013-11-12T17:00:00Z,27.6010,-82.7510,83.7,1111122 
COMPS,ioos:station:USF.COMPS:EGK:1,2013-11-12T17:06:00Z,27.6010,-82.7510,83.58,1111122 
COMPS,ioos:station:USF.COMPS:EGK:1,2013-11-12T17:12:00Z,27.6010,-82.7510,82.97,1111122 
COMPS,ioos:station:USF.COMPS:EGK:1,2013-11-12T17:18:00Z,27.6010,-82.7510,82.26,1111122 
COMPS,ioos:station:USF.COMPS:EGK:1,2013-11-12T17:24:00Z,27.6010,-82.7510,80.89,1111122 
COMPS,ioos:station:USF.COMPS:EGK:1,2013-11-12T17:30:00Z,27.6010,-82.7510,80.37,1111122 
COMPS,ioos:station:USF.COMPS:EGK:1,2013-11-12T17:36:00Z,27.6010,-82.7510,80.05,1111122 
COMPS,ioos:station:USF.COMPS:EGK:1,2013-11-12T17:42:00Z,27.6010,-82.7510,80.38,1111122 
COMPS,ioos:station:USF.COMPS:EGK:1,2013-11-12T17:48:00Z,27.6010,-82.7510,80.59,1111122 
COMPS,ioos:station:USF.COMPS:EGK:1,2013-11-12T17:54:00Z,27.6010,-82.7510,80.86,1111122 
COMPS,ioos:station:USF.COMPS:EGK:1,2013-11-12T18:00:00Z,27.6010,-82.7510,81.04,1111122 
COMPS,ioos:station:USF.COMPS:EGK:1,2013-11-12T18:06:00Z,27.6010,-82.7510,81.55,1111122 
COMPS,ioos:station:USF.COMPS:EGK:1,2013-11-12T18:12:00Z,27.6010,-82.7510,81.99,1111122 
COMPS,ioos:station:USF.COMPS:EGK:1,2013-11-12T18:18:00Z,27.6010,-82.7510,82.74,1111122 
COMPS,ioos:station:USF.COMPS:EGK:1,2013-11-12T18:24:00Z,27.6010,-82.7510,83.03,1111122 
COMPS,ioos:station:USF.COMPS:EGK:1,2013-11-12T18:30:00Z,27.6010,-82.7510,82.79,1111122 
COMPS,ioos:station:USF.COMPS:EGK:1,2013-11-12T18:36:00Z,27.6010,-82.7510,81.92,1111122 
COMPS,ioos:station:USF.COMPS:EGK:1,2013-11-12T18:42:00Z,27.6010,-82.7510,81.96,1111122 
COMPS,ioos:station:USF.COMPS:EGK:1,2013-11-12T18:48:00Z,27.6010,-82.7510,82.52,1111122 
COMPS,ioos:station:USF.COMPS:EGK:1,2013-11-12T18:54:00Z,27.6010,-82.7510,83.14,1111122 
COMPS,ioos:station:USF.COMPS:EGK:1,2013-11-14T22:00:00Z,27.6010,-82.7510,64.14,1111122 
COMPS,ioos:station:USF.COMPS:EGK:1,2013-11-14T22:06:00Z,27.6010,-82.7510,65.65,1111122 
COMPS,ioos:station:USF.COMPS:EGK:1,2013-11-14T22:12:00Z,27.6010,-82.7510,64.72,1111122 
COMPS,ioos:station:USF.COMPS:EGK:1,2013-11-14T22:18:00Z,27.6010,-82.7510,61.96,1111122 
COMPS,ioos:station:USF.COMPS:EGK:1,2013-11-14T22:24:00Z,27.6010,-82.7510,60.91,1111122 
COMPS,ioos:station:USF.COMPS:EGK:1,2013-11-14T22:30:00Z,27.6010,-82.7510,61.2,1111122 
COMPS,ioos:station:USF.COMPS:EGK:1,2013-11-14T22:36:00Z,27.6010,-82.7510,63.44,1111122 
COMPS,ioos:station:USF.COMPS:EGK:1,2013-11-14T22:42:00Z,27.6010,-82.7510,65.51,1111122 
COMPS,ioos:station:USF.COMPS:EGK:1,2013-11-14T22:48:00Z,27.6010,-82.7510,65.61,1111122 
COMPS,ioos:station:USF.COMPS:EGK:1,2013-11-14T22:54:00Z,27.6010,-82.7510,64.34,1111122 
COMPS,ioos:station:USF.COMPS:EGK:1,2013-11-14T23:00:00Z,27.6010,-82.7510,65.95,1111122 
COMPS,ioos:station:USF.COMPS:EGK:1,2013-11-14T23:06:00Z,27.6010,-82.7510,64.68,1111122 
COMPS,ioos:station:USF.COMPS:EGK:1,2013-11-14T23:12:00Z,27.6010,-82.7510,65.35,1111122 
COMPS,ioos:station:USF.COMPS:EGK:1,2013-11-14T23:18:00Z,27.6010,-82.7510,65.63,1111122 
COMPS,ioos:station:USF.COMPS:EGK:1,2013-11-14T23:24:00Z,27.6010,-82.7510,66.48,1111122 
COMPS,ioos:station:USF.COMPS:EGK:1,2013-11-14T23:30:00Z,27.6010,-82.7510,66.6,1111122 
COMPS,ioos:station:USF.COMPS:EGK:1,2013-11-14T23:36:00Z,27.6010,-82.7510,67.75,1111122 
COMPS,ioos:station:USF.COMPS:EGK:1,2013-11-14T23:42:00Z,27.6010,-82.7510,66.17,1111122 
COMPS,ioos:station:USF.COMPS:EGK:1,2013-11-14T23:48:00Z,27.6010,-82.7510,66.99,1111122 
COMPS,ioos:station:USF.COMPS:EGK:1,2013-11-14T23:54:00Z,27.6010,-82.7510,65.94,1111122 
COMPS,ioos:station:USF.COMPS:EGK:1,2013-11-15T00:00:00Z,27.6010,-82.7510,65.28,1111122 
COMPS,ioos:station:USF.COMPS:EGK:1,2013-11-15T00:06:00Z,27.6010,-82.7510,65.02,1111122 
COMPS,ioos:station:USF.COMPS:EGK:1,2013-11-15T00:12:00Z,27.6010,-82.7510,64.77,1111122 
COMPS,ioos:station:USF.COMPS:EGK:1,2013-11-15T00:18:00Z,27.6010,-82.7510,64.09,1111122 
COMPS,ioos:station:USF.COMPS:EGK:1,2013-11-15T00:24:00Z,27.6010,-82.7510,64.39,1111122 
COMPS,ioos:station:USF.COMPS:EGK:1,2013-11-15T00:30:00Z,27.6010,-82.7510,66.53,1111122 
COMPS,ioos:station:USF.COMPS:EGK:1,2013-11-15T00:36:00Z,27.6010,-82.7510,68.77,1111122 
COMPS,ioos:station:USF.COMPS:EGK:1,2013-11-15T00:42:00Z,27.6010,-82.7510,66.12,1111122 
COMPS,ioos:station:USF.COMPS:EGK:1,2013-11-15T00:48:00Z,27.6010,-82.7510,66.15,1111122 
COMPS,ioos:station:USF.COMPS:EGK:1,2013-11-15T00:54:00Z,27.6010,-82.7510,67.47,1111122 
COMPS,ioos:station:USF.COMPS:EGK:1,2013-11-15T01:00:00Z,27.6010,-82.7510,66.88,1111122 
COMPS,ioos:station:USF.COMPS:EGK:1,2013-11-15T01:06:00Z,27.6010,-82.7510,67.48,1111122 